EW7304 Weather Reports


Display with metric or nautical units.
time (UTC)temp
F
wind
direction
speed
MPH
gust
MPH
rain 1hr
in
rain 24hr
in
rain mn
in
humidity
%
barometer
mb
20260906093033 79 134 0.0 0.0 0.00 0.02 0.00 93 1012.1
20260906091534 79 134 0.0 0.0 0.00 0.02 0.00 93 1012.0
20260906090030 80 134 0.0 0.0 0.00 0.02 0.00 93 1012.1
20260906084530 80 134 0.0 0.0 0.00 0.02 0.00 93 1012.0
20260906083038 80 134 0.0 0.0 0.00 0.02 0.00 93 1012.0
20260906081534 80 134 0.0 0.0 0.00 0.02 0.00 92 1012.1
20260906080026 80 134 0.0 0.0 0.00 0.02 0.00 92 1012.1
20260906074525 80 134 0.0 0.0 0.00 0.02 0.00 92 1012.1
20260906073025 80 134 0.0 0.0 0.00 0.02 0.00 92 1012.2
20260906071522 80 134 0.0 0.0 0.00 0.02 0.00 92 1012.1
20260906070021 80 134 0.0 0.0 0.00 0.02 0.00 92 1012.4
20260906064526 80 134 0.0 0.0 0.00 0.02 0.00 92 1012.3
20260906063021 80 134 0.0 0.0 0.00 0.02 0.00 92 1012.3
20260906061519 81 134 0.0 0.0 0.00 0.02 0.00 91 1012.3
20260906060015 81 134 0.0 0.0 0.00 0.02 0.00 90 1012.4
20260906054514 81 134 0.0 1.0 0.00 0.02 0.00 90 1012.3
20260906053008 81 108 0.0 0.0 0.00 0.02 0.00 91 1012.4
20260906051505 80 99 0.0 0.0 0.00 0.02 0.00 91 1012.4
20260906050009 80 99 0.0 0.0 0.00 0.02 0.00 92 1012.4
20260906044502 81 99 0.0 0.0 0.00 0.02 0.02 92 1012.2
20260906043002 81 98 0.0 0.0 0.00 0.02 0.02 92 1012.5
20260906041502 81 98 0.0 0.0 0.00 0.02 0.02 92 1012.5
20260906040001 81 98 0.0 0.0 0.00 0.02 0.02 92 1012.5
20260906034601 82 98 0.0 1.0 0.00 0.02 0.02 92 1012.5
20260906033100 81 84 0.0 0.0 0.00 0.02 0.02 92 1012.7
20260906031600 82 83 0.0 0.0 0.00 0.02 0.02 92 1012.5
20260906030130 82 83 0.0 0.0 0.00 0.02 0.02 92 1012.4
20260906024602 82 83 0.0 0.0 0.00 0.02 0.02 92 1012.5
20260906023112 82 84 0.0 1.0 0.00 0.02 0.02 91 1012.1
20260906021610 82 89 0.0 0.0 0.00 0.02 0.02 90 1011.9
20260906020101 83 89 0.0 0.0 0.00 0.02 0.02 89 1011.8
20260906014604 83 83 0.0 0.0 0.00 0.02 0.02 87 1011.8
20260906013056 84 72 0.0 0.0 0.00 0.02 0.02 84 1011.5
20260906011554 84 65 0.0 1.0 0.00 0.02 0.02 84 1011.4
20260906010054 84 65 0.0 3.0 0.00 0.02 0.02 83 1011.4
20260906004556 85 81 0.0 3.0 0.00 0.02 0.02 83 1011.5
20260906003103 85 90 0.0 2.0 0.00 0.02 0.02 83 1011.5
20260906001551 85 75 0.0 3.0 0.00 0.02 0.02 83 1011.7
20260906000051 86 65 0.0 1.0 0.00 0.02 0.02 83 1012.1
20260905234556 86 50 0.0 2.0 0.00 0.02 0.02 83 1012.0
20260905233050 86 46 0.0 2.0 0.00 0.02 0.02 82 1011.9
20260905231548 86 77 0.0 2.0 0.00 0.02 0.02 81 1011.7
20260905230051 87 78 0.0 3.0 0.00 0.02 0.02 80 1011.7
20260905224548 87 77 1.0 4.0 0.00 0.02 0.02 79 1011.7
20260905223047 87 91 0.0 3.0 0.00 0.02 0.02 78 1011.7
20260905221546 88 77 0.0 4.0 0.00 0.02 0.02 78 1011.7
20260905220046 88 69 1.0 5.0 0.00 0.02 0.02 75 1011.5
20260905214552 90 216 0.0 2.0 0.00 0.02 0.02 69 1011.6
20260905213046 90 108 0.0 1.0 0.00 0.02 0.02 66 1011.8
20260905211542 90 28 0.0 2.0 0.00 0.02 0.02 66 1011.8
20260905210044 90 72 0.0 2.0 0.00 0.02 0.02 68 1011.8
20260905204539 90 223 0.0 2.0 0.00 0.02 0.02 69 1012.0
20260905203040 89 203 0.0 3.0 0.00 0.02 0.02 70 1012.3
20260905201539 88 196 0.0 0.0 0.00 0.02 0.02 74 1012.4
20260905200042 88 211 0.0 2.0 0.00 0.02 0.02 74 1012.5
20260905194534 87 202 0.0 2.0 0.00 0.03 0.02 76 1012.4
20260905193034 87 77 0.0 0.0 0.00 0.03 0.02 77 1012.5
20260905191533 86 82 0.0 0.0 0.01 0.03 0.02 78 1013.0
20260905190032 86 78 0.0 0.0 0.01 0.03 0.02 81 1013.2
20260905184537 85 86 0.0 0.0 0.01 0.03 0.02 85 1013.3
20260905183032 83 85 0.0 0.0 0.01 0.03 0.02 87 1013.6
20260905181531 82 207 0.0 0.0 0.01 0.02 0.01 87 1013.7
20260905180030 81 207 0.0 1.0 0.01 0.02 0.01 88 1014.1
20260905174536 81 210 0.0 1.0 0.01 0.02 0.01 89 1014.1
20260905173029 81 224 0.0 1.0 0.01 0.02 0.01 86 1014.6
20260905171529 84 91 1.0 3.0 0.00 0.01 0.00 82 1014.8
20260905170030 86 226 0.0 3.0 0.00 0.01 0.00 79 1014.9
20260905164526 86 219 2.0 7.0 0.00 0.01 0.00 72 1014.6
20260905163025 86 209 0.0 6.0 0.00 0.01 0.00 75 1014.7
20260905161525 89 94 0.0 1.0 0.00 0.01 0.00 73 1014.5
20260905160040 88 359 0.0 2.0 0.00 0.01 0.00 75 1014.4
20260905154522 86 357 0.0 3.0 0.00 0.01 0.00 79 1014.4
20260905153024 87 343 0.0 4.0 0.00 0.01 0.00 75 1014.3
20260905151522 87 283 0.0 1.0 0.00 0.01 0.00 78 1014.4
20260905150026 88 289 0.0 3.0 0.00 0.01 0.00 76 1014.3
20260905144538 89 260 0.0 1.0 0.00 0.01 0.00 77 1014.3
20260905143023 88 282 0.0 1.0 0.00 0.01 0.00 81 1014.3
20260905141530 89 233 0.0 1.0 0.00 0.01 0.00 77 1014.3
20260905140013 86 259 0.0 2.0 0.00 0.01 0.00 84 1014.1
20260905134515 86 286 0.0 1.0 0.00 0.01 0.00 88 1014.1
20260905133009 84 227 0.0 0.0 0.00 0.01 0.00 89 1014.2
20260905131502 83 228 0.0 0.0 0.00 0.01 0.00 91 1014.0
20260905124557 79 228 0.0 0.0 0.00 0.01 0.00 96 1013.7
20260905123059 78 227 0.0 0.0 0.00 0.01 0.00 96 1013.5
20260905121555 78 228 0.0 0.0 0.00 0.01 0.00 96 1013.5
20260905120058 78 228 0.0 0.0 0.00 0.01 0.00 96 1013.2
20260905114625 78 227 0.0 0.0 0.00 0.01 0.00 96 1013.0
20260905113055 78 227 0.0 0.0 0.00 0.01 0.00 96 1012.9
20260905111553 78 227 0.0 0.0 0.00 0.01 0.00 96 1012.7
20260905110050 78 228 0.0 0.0 0.00 0.01 0.00 95 1012.6
20260905104551 78 228 0.0 0.0 0.00 0.01 0.00 95 1012.7
20260905103048 78 228 0.0 0.0 0.00 0.01 0.00 95 1012.5
20260905101547 78 228 0.0 0.0 0.00 0.01 0.00 95 1012.6
20260905100106 78 227 0.0 0.0 0.00 0.01 0.00 95 1012.6
20260905094547 78 228 0.0 0.0 0.00 0.01 0.00 95 1012.6